EW1616 Weather Reports


Display with metric or nautical units.
time (UTC)temp
F
wind
direction
speed
MPH
gust
MPH
rain 1hr
in
rain 24hr
in
rain mn
in
humidity
%
barometer
mb
20260505022508 66 156 0.0 3.0 0.00 0.00 0.00 66 1014.0
20260505022012 66 145 0.0 3.0 0.00 0.00 0.00 66 1014.0
20260505021527 67 196 0.0 3.0 0.00 0.00 0.00 66 1014.0
20260505021011 67 172 0.0 2.0 0.00 0.00 0.00 65 1014.0
20260505020512 67 172 0.0 2.0 0.00 0.00 0.00 65 1014.0
20260505020020 68 157 0.0 2.0 0.00 0.00 0.00 65 1013.9
20260505015504 68 195 0.0 0.0 0.00 0.00 0.00 65 1013.7
20260505015007 68 195 0.0 0.0 0.00 0.00 0.00 64 1013.6
20260505014511 69 195 0.0 0.0 0.00 0.00 0.00 63 1013.6
20260505014008 69 195 0.0 1.0 0.00 0.00 0.00 61 1013.8
20260505013509 69 195 0.0 2.0 0.00 0.00 0.00 59 1013.6
20260505013017 69 195 0.0 3.0 0.00 0.00 0.00 59 1013.7
20260505012509 70 195 1.0 4.0 0.00 0.00 0.00 58 1013.6
20260505012009 70 200 1.0 4.0 0.00 0.00 0.00 57 1013.4
20260505011531 70 213 2.0 4.0 0.00 0.00 0.00 56 1013.4
20260505011010 70 213 2.0 4.0 0.00 0.00 0.00 55 1013.3
20260505010513 71 192 1.0 4.0 0.00 0.00 0.00 55 1013.4
20260505010027 71 212 2.0 4.0 0.00 0.00 0.00 55 1013.6
20260505005510 71 207 1.0 4.0 0.00 0.00 0.00 54 1013.5
20260505005012 72 222 2.0 4.0 0.00 0.00 0.00 54 1013.2
20260505004519 72 205 1.0 3.0 0.00 0.00 0.00 53 1013.2
20260505004007 73 205 1.0 3.0 0.00 0.00 0.00 52 1013.1
20260505003507 73 213 2.0 3.0 0.00 0.00 0.00 50 1013.2
20260505003016 73 223 1.0 3.0 0.00 0.00 0.00 50 1013.3
20260505002509 73 215 1.0 4.0 0.00 0.00 0.00 50 1013.5
20260505002012 74 214 2.0 5.0 0.00 0.00 0.00 49 1013.5
20260505001520 74 44 2.0 7.0 0.00 0.00 0.00 48 1013.5
20260505001014 74 221 2.0 7.0 0.00 0.00 0.00 48 1013.7
20260505000513 74 226 3.0 5.0 0.00 0.00 0.00 47 1013.8
20260505000036 75 239 2.0 5.0 0.00 0.00 0.00 48 1013.9
20260504235510 75 217 1.0 5.0 0.00 0.00 0.00 48 1014.0
20260504235010 75 263 2.0 5.0 0.00 0.00 0.00 47 1014.0
20260504234528 76 228 2.0 5.0 0.00 0.00 0.00 46 1014.0
20260504234010 76 248 1.0 5.0 0.00 0.00 0.00 45 1013.9
20260504233513 77 238 2.0 7.0 0.00 0.00 0.00 45 1013.9
20260504233013 77 263 3.0 7.0 0.00 0.00 0.00 44 1013.9
20260504232507 77 222 2.0 7.0 0.00 0.00 0.00 44 1013.9
20260504232010 77 249 3.0 6.0 0.00 0.00 0.00 44 1013.9
20260504231518 77 231 3.0 7.0 0.00 0.00 0.00 44 1014.0
20260504231009 77 227 4.0 7.0 0.00 0.00 0.00 45 1014.1
20260504230506 78 260 3.0 9.0 0.00 0.00 0.00 44 1014.1
20260504230022 78 223 4.0 9.0 0.00 0.00 0.00 43 1014.0
20260504225507 78 204 3.0 9.0 0.00 0.00 0.00 43 1014.0
20260504225015 78 269 4.0 9.0 0.00 0.00 0.00 43 1014.2
20260504224525 78 234 3.0 8.0 0.00 0.00 0.00 45 1014.3
20260504224009 78 236 3.0 9.0 0.00 0.00 0.00 44 1014.3
20260504223511 78 289 2.0 9.0 0.00 0.00 0.00 45 1014.4
20260504223026 79 240 2.0 9.0 0.00 0.00 0.00 44 1014.3
20260504222506 79 325 3.0 9.0 0.00 0.00 0.00 43 1014.3
20260504222014 79 234 2.0 9.0 0.00 0.00 0.00 43 1014.4
20260504221515 79 220 2.0 10.0 0.00 0.00 0.00 44 1014.5
20260504221008 79 242 4.0 10.0 0.00 0.00 0.00 45 1014.6
20260504220510 79 222 1.0 10.0 0.00 0.00 0.00 45 1014.6
20260504220020 79 250 4.0 10.0 0.00 0.00 0.00 43 1014.7
20260504215507 80 294 3.0 10.0 0.00 0.00 0.00 44 1014.7
20260504215013 80 262 4.0 10.0 0.00 0.00 0.00 45 1014.8
20260504214504 80 225 1.0 8.0 0.00 0.00 0.00 45 1014.7
20260504214002 80 183 3.0 10.0 0.00 0.00 0.00 43 1014.8
20260504213503 80 216 5.0 10.0 0.00 0.00 0.00 43 1014.8
20260504213007 80 240 4.0 9.0 0.00 0.00 0.00 46 1014.8
20260504212507 80 209 3.0 9.0 0.00 0.00 0.00 44 1014.9
20260504212008 80 262 5.0 9.0 0.00 0.00 0.00 46 1014.8
20260504211513 80 244 4.0 9.0 0.00 0.00 0.00 45 1014.9
20260504211007 80 138 1.0 7.0 0.00 0.00 0.00 44 1015.0
20260504210508 79 231 1.0 10.0 0.00 0.00 0.00 44 1015.0
20260504210023 80 240 3.0 10.0 0.00 0.00 0.00 45 1015.2
20260504205508 79 246 6.0 10.0 0.00 0.00 0.00 45 1015.6
20260504205010 80 267 4.0 8.0 0.00 0.00 0.00 45 1015.6
20260504204504 80 276 2.0 9.0 0.00 0.00 0.00 45 1015.5
20260504204002 80 254 2.0 14.0 0.00 0.00 0.00 46 1015.5
20260504203504 80 294 5.0 14.0 0.00 0.00 0.00 45 1015.6
20260504203008 80 268 5.0 12.0 0.00 0.00 0.00 44 1015.8
20260504202506 80 200 3.0 9.0 0.00 0.00 0.00 42 1015.8
20260504202007 80 136 3.0 10.0 0.00 0.00 0.00 42 1015.9
20260504201513 80 290 5.0 11.0 0.00 0.00 0.00 46 1015.9
20260504201004 80 178 4.0 11.0 0.00 0.00 0.00 42 1015.9
20260504200507 80 198 3.0 11.0 0.00 0.00 0.00 45 1016.0
20260504200016 80 180 3.0 11.0 0.00 0.00 0.00 43 1016.0
20260504195507 81 236 2.0 11.0 0.00 0.00 0.00 44 1016.1
20260504195011 80 248 5.0 11.0 0.00 0.00 0.00 44 1016.2
20260504194522 80 38 2.0 10.0 0.00 0.00 0.00 43 1016.3
20260504194009 80 214 3.0 11.0 0.00 0.00 0.00 44 1016.5
20260504193509 80 229 5.0 11.0 0.00 0.00 0.00 42 1016.5
20260504193004 80 261 4.0 10.0 0.00 0.00 0.00 42 1016.6
20260504192504 80 254 4.0 9.0 0.00 0.00 0.00 46 1016.7
20260504192003 80 240 4.0 9.0 0.00 0.00 0.00 43 1016.8
20260504191508 80 225 1.0 9.0 0.00 0.00 0.00 43 1016.8
20260504191003 80 163 3.0 9.0 0.00 0.00 0.00 42 1016.9
20260504190506 80 229 5.0 10.0 0.00 0.00 0.00 43 1016.9
20260504190014 80 181 3.0 11.0 0.00 0.00 0.00 41 1016.9
20260504185507 80 132 4.0 11.0 0.00 0.00 0.00 41 1017.1
20260504185007 80 227 5.0 10.0 0.00 0.00 0.00 42 1017.0
20260504184520 79 207 4.0 9.0 0.00 0.00 0.00 42 1016.8
20260504184009 80 290 2.0 8.0 0.00 0.00 0.00 45 1017.0
20260504183511 80 299 2.0 12.0 0.00 0.00 0.00 44 1017.1
20260504183026 80 213 5.0 12.0 0.00 0.00 0.00 42 1017.2
20260504182509 80 247 2.0 11.0 0.00 0.00 0.00 45 1017.2
20260504182005 79 229 2.0 10.0 0.00 0.00 0.00 43 1017.3
20260504181507 79 246 4.0 12.0 0.00 0.00 0.00 42 1017.5
20260504181004 79 217 3.0 12.0 0.00 0.00 0.00 44 1017.7
20260504180504 78 200 6.0 12.0 0.00 0.00 0.00 43 1017.6
20260504180013 78 240 7.0 12.0 0.00 0.00 0.00 42 1017.6
20260504175503 78 222 4.0 11.0 0.00 0.00 0.00 44 1017.7
20260504175006 78 212 3.0 10.0 0.00 0.00 0.00 42 1017.8
20260504174514 78 225 3.0 10.0 0.00 0.00 0.00 44 1017.8
20260504174008 78 206 5.0 11.0 0.00 0.00 0.00 41 1017.8
20260504173509 78 94 2.0 12.0 0.00 0.00 0.00 44 1017.8
20260504173020 79 205 6.0 12.0 0.00 0.00 0.00 41 1017.7
20260504172509 78 208 3.0 7.0 0.00 0.00 0.00 40 1017.9
20260504172014 78 209 3.0 7.0 0.00 0.00 0.00 46 1017.9
20260504171524 78 272 3.0 15.0 0.00 0.00 0.00 43 1018.0
20260504171010 78 309 3.0 15.0 0.00 0.00 0.00 44 1018.0
20260504170504 78 221 3.0 10.0 0.00 0.00 0.00 45 1018.0
20260504151006 74 103 3.0 8.0 0.00 0.00 0.00 53 1018.6
20260504150511 74 210 2.0 8.0 0.00 0.00 0.00 54 1018.6
20260504141009 70 190 3.0 7.0 0.00 0.00 0.00 68 1018.6
20260504140509 69 229 1.0 5.0 0.00 0.00 0.00 69 1018.6
20260504130511 60 32 0.0 1.0 0.00 0.00 0.00 93 1018.6
20260504110507 51 134 0.0 1.0 0.00 0.00 0.00 91 1017.9
20260504100506 52 215 0.0 0.0 0.00 0.00 0.00 90 1018.0
20260504081527 56 215 0.0 1.0 0.00 0.00 0.00 83 1018.4
20260504081010 56 215 0.0 0.0 0.00 0.00 0.00 83 1018.3
20260504080506 56 215 0.0 0.0 0.00 0.00 0.00 82 1018.1
20260504050507 59 199 0.0 0.0 0.00 0.00 0.00 80 1019.4
20260504050022 59 199 0.0 0.0 0.00 0.00 0.00 79 1019.4
20260504045511 59 199 0.0 1.0 0.00 0.00 0.00 79 1019.4
20260504045009 59 199 0.0 2.0 0.00 0.00 0.00 79 1019.5
20260504044529 59 199 0.0 2.0 0.00 0.00 0.00 80 1019.6
20260504044008 59 199 0.0 2.0 0.00 0.00 0.00 80 1019.6
20260504043511 58 199 0.0 4.0 0.00 0.00 0.00 80 1019.6
20260504043029 58 199 0.0 6.0 0.00 0.00 0.00 80 1019.6
20260504042510 58 161 2.0 6.0 0.00 0.00 0.00 82 1019.6
20260504042012 58 259 0.0 0.0 0.00 0.00 0.00 83 1019.5
20260504041517 58 259 0.0 0.0 0.00 0.00 0.00 83 1019.5
20260504041007 58 259 0.0 0.0 0.00 0.00 0.00 83 1019.5
20260504040507 58 259 0.0 0.0 0.00 0.00 0.00 82 1019.6
20260504040020 58 259 0.0 0.0 0.00 0.00 0.00 82 1019.6
20260504035512 58 259 0.0 0.0 0.00 0.00 0.00 82 1019.6
20260504035011 59 259 0.0 0.0 0.00 0.00 0.00 81 1019.7
20260504034504 59 259 0.0 0.0 0.00 0.00 0.00 81 1019.6
20260504034002 59 259 0.0 0.0 0.00 0.00 0.00 80 1019.7
20260504033502 59 259 0.0 0.0 0.00 0.00 0.00 79 1019.7
20260504033009 59 259 0.0 0.0 0.00 0.00 0.00 78 1019.7
20260504032506 59 259 0.0 0.0 0.00 0.00 0.00 78 1019.8
20260504032008 60 259 0.0 0.0 0.00 0.00 0.00 79 1019.7
20260504031507 60 259 0.0 0.0 0.00 0.00 0.00 79 1019.6
20260504031003 60 259 0.0 0.0 0.00 0.00 0.00 78 1019.7
20260504030507 60 259 0.0 0.0 0.00 0.00 0.00 78 1019.7
20260504030009 61 259 0.0 0.0 0.00 0.00 0.00 78 1019.7
20260504025503 61 259 0.0 0.0 0.00 0.00 0.00 77 1019.7
20260504025003 61 259 0.0 0.0 0.00 0.00 0.00 76 1019.7
20260504024504 61 259 0.0 0.0 0.00 0.00 0.00 74 1019.7
20260504024003 62 259 0.0 0.0 0.00 0.00 0.00 74 1019.6
20260504023504 62 259 0.0 0.0 0.00 0.00 0.00 73 1019.5
20260504023008 62 259 0.0 0.0 0.00 0.00 0.00 72 1019.5